Location: Unspecified
(0.0000°N, 0.0000°E)
Time: 03:29:26
(UTC+02:00)

Atlas Centaur 2 - Visible Passes

Search period start: 01 October 2016 00:00
Search period end: 11 October 2016 00:00
Orbit: 459 x 1315 km, 30.4° (Epoch: 29 September)

Date Brightness Start Highest point End Pass type
(mag) Time Alt. Az. Time Alt. Az. Time Alt. Az.
01 Oct 4.0 20:55:21 10° NNW 21:02:23 28° NNE 21:05:10 23° ENE visible
01 Oct 4.4 22:44:15 10° NW 22:47:51 28° NW 22:47:51 28° NW visible
02 Oct 3.8 20:51:46 10° NNW 20:59:24 35° NNE 21:02:50 26° ENE visible
02 Oct 4.2 22:41:06 10° WNW 22:45:32 34° WNW 22:45:32 34° WNW visible
03 Oct 3.5 20:48:17 10° NW 20:56:21 45° NNE 21:00:37 26° E visible
03 Oct 4.0 22:38:03 10° WNW 22:43:19 39° W 22:43:19 39° W visible
04 Oct 3.3 20:44:55 10° NW 20:53:16 56° NNE 20:58:29 23° E visible
04 Oct 4.0 22:35:08 10° WNW 22:41:11 41° WSW 22:41:11 41° WSW visible
05 Oct 3.1 20:41:38 10° NW 20:50:07 70° NNE 20:56:26 19° ESE visible
05 Oct 4.1 22:32:20 10° W 22:39:09 38° SW 22:39:09 38° SW visible
06 Oct 3.1 20:38:27 10° NW 20:46:59 86° NNE 20:54:25 14° ESE visible
06 Oct 4.3 22:29:43 10° W 22:37:00 31° SSW 22:37:09 31° SSW visible
07 Oct 3.3 20:35:22 10° WNW 20:43:49 77° SSW 20:52:14 10° SE visible
07 Oct 4.5 22:27:16 10° W 22:33:57 25° SSW 22:35:11 24° SSW visible
08 Oct 3.6 20:32:25 10° WNW 20:40:40 62° SSW 20:49:01 10° SE visible
08 Oct 4.8 22:25:02 10° WSW 22:30:58 20° SSW 22:33:10 18° S visible
09 Oct 4.1 05:54:56 11° S 05:56:10 12° SSE 05:57:38 10° SE visible
09 Oct 3.9 20:29:35 10° WNW 20:37:32 49° SSW 20:45:43 10° SE visible
09 Oct 5.0 22:23:03 10° WSW 22:28:03 17° SSW 22:31:07 14° S visible
10 Oct 3.7 05:52:46 17° SSE 05:53:25 18° SSE 05:56:09 10° ESE visible
10 Oct 4.3 20:26:54 10° W 20:34:27 39° SSW 20:42:18 10° SE visible
10 Oct 5.2 22:21:26 10° SW 22:25:12 13° SSW 22:28:53 10° S visible
